Location: *
(58.7167°N, 26.1833°E)
Time: 22:58:25
(UTC+00:00)

Cosmos 1417 Rocket - Pass Details

Date: 25 August 2019
Orbit: 952 x 998 km, 83.0° (Epoch: 20 September)

Event Time Altitude Azimuth Distance (km) Brightness Sun altitude
Rises 18:20:05 0° 186° (S) 3,624 7.2 -5.9°
Reaches altitude 10° 18:22:34 10° 186° (S) 2,679 6.6 -6.1°
Maximum altitude 18:28:41 82° 99° (E) 971 4.5 -6.8°
Drops below altitude 10° 18:34:51 10° 14° (NNE) 2,698 7.1 -7.5°
Sets 18:37:22 0° 14° (NNE) 3,651 7.8 -7.7°
